Time,TemperatureF,DewpointF,PressureIn,WindDirection,WindDirectionDegrees,WindSpeedMPH,WindSpeedGustMPH,Humidity,HourlyPrecipIn,Conditions,Clouds,dailyrainin,SoftwareType,DateUTC
2013-04-14 00:09:00,63.9,49.0,29.73,South,170,4.0,11.0,58,0.00,,,0.00,weatherlink.com 1.10,2013-04-14 05:09:00,
2013-04-14 00:25:00,63.6,49.0,29.72,SSE,147,6.0,9.0,59,0.00,,,0.00,weatherlink.com 1.10,2013-04-14 05:25:00,
2013-04-14 00:40:00,63.4,49.0,29.72,SSE,159,0.0,8.0,60,0.00,,,0.00,weatherlink.com 1.10,2013-04-14 05:40:00,
2013-04-14 00:55:00,63.1,49.0,29.71,SSE,163,2.0,11.0,60,0.00,,,0.00,weatherlink.com 1.10,2013-04-14 05:55:00,
2013-04-14 01:10:00,62.5,49.0,29.72,SSE,158,0.0,8.0,62,0.00,,,0.00,weatherlink.com 1.10,2013-04-14 06:10:00,
2013-04-14 01:25:00,62.5,49.0,29.72,SSE,150,0.0,6.0,62,0.00,,,0.00,weatherlink.com 1.10,2013-04-14 06:25:00,
2013-04-14 01:40:00,61.8,49.0,29.71,SSE,150,4.0,8.0,63,0.00,,,0.00,weatherlink.com 1.10,2013-04-14 06:40:00,
2013-04-14 01:55:00,61.1,49.0,29.70,SE,146,3.0,8.0,65,0.00,,,0.00,weatherlink.com 1.10,2013-04-14 06:55:00,
2013-04-14 02:10:00,61.2,50.0,29.70,SE,144,0.0,8.0,66,0.00,,,0.00,weatherlink.com 1.10,2013-04-14 07:10:00,
2013-04-14 02:25:00,61.3,50.0,29.69,SSE,167,0.0,9.0,67,0.00,,,0.00,weatherlink.com 1.10,2013-04-14 07:25:00,
2013-04-14 02:40:00,61.5,50.0,29.69,SSE,152,0.0,9.0,67,0.00,,,0.00,weatherlink.com 1.10,2013-04-14 07:40:00,
2013-04-14 02:55:00,61.2,50.0,29.69,SSW,198,0.0,7.0,67,0.00,,,0.00,weatherlink.com 1.10,2013-04-14 07:55:00,
2013-04-14 03:10:00,60.3,50.0,29.68,SSE,150,1.0,6.0,69,0.00,,,0.00,weatherlink.com 1.10,2013-04-14 08:10:00,
2013-04-14 03:25:00,59.6,50.0,29.67,SSE,147,4.0,5.0,71,0.00,,,0.00,weatherlink.com 1.10,2013-04-14 08:25:00,
2013-04-14 03:40:00,59.3,50.0,29.67,SSE,164,3.0,5.0,72,0.00,,,0.00,weatherlink.com 1.10,2013-04-14 08:40:00,
2013-04-14 03:55:00,59.5,50.0,29.66,SSE,159,0.0,6.0,72,0.00,,,0.00,weatherlink.com 1.10,2013-04-14 08:55:00,
2013-04-14 04:10:00,59.4,50.0,29.65,South,169,2.0,7.0,72,0.00,,,0.00,weatherlink.com 1.10,2013-04-14 09:10:00,
2013-04-14 04:25:00,59.1,50.0,29.65,South,169,0.0,8.0,73,0.00,,,0.00,weatherlink.com 1.10,2013-04-14 09:25:00,
2013-04-14 04:40:00,58.9,51.0,29.64,SSE,156,4.0,8.0,74,0.00,,,0.00,weatherlink.com 1.10,2013-04-14 09:40:00,
2013-04-14 04:55:00,58.6,50.0,29.63,South,170,1.0,5.0,73,0.00,,,0.00,weatherlink.com 1.10,2013-04-14 09:55:00,
2013-04-14 05:10:00,58.5,50.0,29.63,South,189,0.0,7.0,73,0.00,,,0.00,weatherlink.com 1.10,2013-04-14 10:10:00,
2013-04-14 05:25:00,58.2,50.0,29.62,South,172,0.0,10.0,74,0.00,,,0.00,weatherlink.com 1.10,2013-04-14 10:25:00,
2013-04-14 05:40:00,57.9,50.0,29.61,South,172,0.0,8.0,74,0.00,,,0.00,weatherlink.com 1.10,2013-04-14 10:40:00,
2013-04-14 05:55:00,57.7,50.0,29.61,SSE,164,6.0,7.0,75,0.00,,,0.00,weatherlink.com 1.10,2013-04-14 10:55:00,
2013-04-14 06:10:00,57.6,49.0,29.61,South,169,3.0,8.0,74,0.00,,,0.00,weatherlink.com 1.10,2013-04-14 11:10:00,
2013-04-14 06:25:00,57.5,49.0,29.61,SSE,159,0.0,7.0,74,0.00,,,0.00,weatherlink.com 1.10,2013-04-14 11:25:00,
2013-04-14 06:40:00,57.6,49.0,29.61,SSE,155,5.0,9.0,73,0.00,,,0.00,weatherlink.com 1.10,2013-04-14 11:40:00,
2013-04-14 06:55:00,57.7,49.0,29.61,SSE,153,5.0,9.0,73,0.00,,,0.00,weatherlink.com 1.10,2013-04-14 11:55:00,
2013-04-14 07:10:00,57.8,49.0,29.61,SSE,157,0.0,8.0,73,0.00,,,0.00,weatherlink.com 1.10,2013-04-14 12:10:00,
2013-04-14 07:25:00,57.8,49.0,29.62,South,185,0.0,8.0,73,0.00,,,0.00,weatherlink.com 1.10,2013-04-14 12:25:00,
2013-04-14 07:40:00,58.3,50.0,29.63,SSE,167,4.0,7.0,74,0.00,,,0.00,weatherlink.com 1.10,2013-04-14 12:40:00,
2013-04-14 07:55:00,58.8,51.0,29.63,SE,139,2.0,8.0,74,0.00,,,0.00,weatherlink.com 1.10,2013-04-14 12:55:00,
2013-04-14 08:10:00,59.7,51.0,29.63,SSE,160,2.0,10.0,74,0.00,,,0.00,weatherlink.com 1.10,2013-04-14 13:10:00,
2013-04-14 08:25:00,60.5,52.0,29.62,SSW,196,5.0,14.0,74,0.00,,,0.00,weatherlink.com 1.10,2013-04-14 13:25:00,
2013-04-14 08:40:00,61.3,53.0,29.62,SSE,165,1.0,14.0,73,0.00,,,0.00,weatherlink.com 1.10,2013-04-14 13:40:00,
2013-04-14 08:55:00,62.9,53.0,29.62,SSE,163,4.0,18.0,71,0.00,,,0.00,weatherlink.com 1.10,2013-04-14 13:55:00,
2013-04-14 09:10:00,63.4,54.0,29.62,SSE,163,4.0,14.0,72,0.00,,,0.00,weatherlink.com 1.10,2013-04-14 14:10:00,
2013-04-14 09:25:00,63.9,54.0,29.61,SSE,157,6.0,20.0,71,0.00,,,0.00,weatherlink.com 1.10,2013-04-14 14:25:00,
2013-04-14 09:41:00,65.1,55.0,29.60,South,180,0.0,21.0,70,0.00,,,0.00,weatherlink.com 1.10,2013-04-14 14:41:00,
2013-04-14 09:56:00,66.1,55.0,29.61,SSW,192,7.0,21.0,68,0.00,,,0.00,weatherlink.com 1.10,2013-04-14 14:56:00,
2013-04-14 10:11:00,67.2,55.0,29.60,SSW,197,13.0,22.0,65,0.00,,,0.00,weatherlink.com 1.10,2013-04-14 15:11:00,
2013-04-14 10:26:00,67.7,55.0,29.60,SSW,201,10.0,22.0,65,0.00,,,0.00,weatherlink.com 1.10,2013-04-14 15:26:00,
2013-04-14 10:41:00,67.9,56.0,29.59,SSW,202,7.0,25.0,65,0.00,,,0.00,weatherlink.com 1.10,2013-04-14 15:41:00,
2013-04-14 11:11:00,69.7,56.0,29.58,South,182,8.0,24.0,61,0.00,,,0.00,weatherlink.com 1.10,2013-04-14 16:11:00,
2013-04-14 11:56:00,72.6,55.0,29.56,South,185,14.0,23.0,55,0.00,,,0.00,weatherlink.com 1.10,2013-04-14 16:56:00,
2013-04-14 12:11:00,73.5,56.0,29.56,SSW,213,7.0,21.0,54,0.00,,,0.00,weatherlink.com 1.10,2013-04-14 17:11:00,
2013-04-14 12:26:00,73.2,56.0,29.55,SSE,167,19.0,29.0,56,0.00,,,0.00,weatherlink.com 1.10,2013-04-14 17:26:00,
2013-04-14 12:41:00,74.3,57.0,29.55,South,171,6.0,23.0,56,0.00,,,0.00,weatherlink.com 1.10,2013-04-14 17:41:00,
2013-04-14 12:56:00,74.0,57.0,29.55,SSW,193,11.0,27.0,56,0.00,,,0.00,weatherlink.com 1.10,2013-04-14 17:56:00,
2013-04-14 13:26:00,74.6,58.0,29.54,South,171,4.0,26.0,56,0.00,,,0.00,weatherlink.com 1.10,2013-04-14 18:26:00,
2013-04-14 13:41:00,75.1,59.0,29.53,SSW,210,8.0,21.0,57,0.00,,,0.00,weatherlink.com 1.10,2013-04-14 18:41:00,
2013-04-14 14:26:00,76.9,59.0,29.51,SSW,198,8.0,20.0,55,0.00,,,0.00,weatherlink.com 1.10,2013-04-14 19:26:00,
2013-04-14 14:41:00,77.3,59.0,29.50,SSW,201,4.0,21.0,54,0.00,,,0.00,weatherlink.com 1.10,2013-04-14 19:41:00,
2013-04-14 14:56:00,78.0,60.0,29.50,SE,141,6.0,22.0,55,0.00,,,0.00,weatherlink.com 1.10,2013-04-14 19:56:00,
2013-04-14 15:11:00,77.7,61.0,29.49,SE,145,16.0,21.0,56,0.00,,,0.00,weatherlink.com 1.10,2013-04-14 20:11:00,
2013-04-14 15:26:00,78.4,61.0,29.48,SSE,155,12.0,18.0,56,0.00,,,0.00,weatherlink.com 1.10,2013-04-14 20:26:00,
2013-04-14 15:42:00,78.5,61.0,29.48,South,180,16.0,22.0,56,0.00,,,0.00,weatherlink.com 1.10,2013-04-14 20:42:00,
2013-04-14 15:57:00,79.2,61.0,29.47,South,190,18.0,21.0,54,0.00,,,0.00,weatherlink.com 1.10,2013-04-14 20:57:00,
2013-04-14 16:12:00,79.6,62.0,29.46,SSE,165,12.0,19.0,55,0.00,,,0.00,weatherlink.com 1.10,2013-04-14 21:12:00,
2013-04-14 16:27:00,79.6,62.0,29.47,SSW,196,5.0,24.0,55,0.00,,,0.00,weatherlink.com 1.10,2013-04-14 21:27:00,
2013-04-14 16:42:00,80.3,62.0,29.47,SSW,207,9.0,20.0,54,0.00,,,0.00,weatherlink.com 1.10,2013-04-14 21:42:00,
2013-04-14 16:57:00,80.0,62.0,29.47,SSE,164,7.0,22.0,55,0.00,,,0.00,weatherlink.com 1.10,2013-04-14 21:57:00,
2013-04-14 17:12:00,80.8,63.0,29.47,SW,217,10.0,21.0,55,0.00,,,0.00,weatherlink.com 1.10,2013-04-14 22:12:00,
2013-04-14 17:27:00,80.3,63.0,29.46,SSE,165,12.0,17.0,56,0.00,,,0.00,weatherlink.com 1.10,2013-04-14 22:27:00,
2013-04-14 17:42:00,80.3,63.0,29.46,South,188,12.0,22.0,56,0.00,,,0.00,weatherlink.com 1.10,2013-04-14 22:42:00,
2013-04-14 17:57:00,80.2,63.0,29.46,South,181,6.0,24.0,56,0.00,,,0.00,weatherlink.com 1.10,2013-04-14 22:57:00,
2013-04-14 18:12:00,80.4,63.0,29.46,SSE,149,4.0,20.0,55,0.00,,,0.00,weatherlink.com 1.10,2013-04-14 23:12:00,
2013-04-14 18:27:00,80.3,63.0,29.46,SE,134,9.0,16.0,56,0.00,,,0.00,weatherlink.com 1.10,2013-04-14 23:27:00,
2013-04-14 18:42:00,80.0,63.0,29.46,SE,145,4.0,17.0,56,0.00,,,0.00,weatherlink.com 1.10,2013-04-14 23:42:00,
2013-04-14 18:57:00,79.8,63.0,29.46,SE,132,9.0,16.0,57,0.00,,,0.00,weatherlink.com 1.10,2013-04-14 23:57:00,
2013-04-14 19:12:00,78.9,63.0,29.46,SE,146,12.0,19.0,59,0.00,,,0.00,weatherlink.com 1.10,2013-04-15 00:12:00,
2013-04-14 19:27:00,78.3,63.0,29.46,SSE,156,7.0,15.0,60,0.00,,,0.00,weatherlink.com 1.10,2013-04-15 00:27:00,
2013-04-14 19:42:00,77.6,63.0,29.47,SSE,157,7.0,16.0,62,0.00,,,0.00,weatherlink.com 1.10,2013-04-15 00:42:00,
2013-04-14 19:57:00,76.8,64.0,29.47,SSE,149,10.0,15.0,64,0.00,,,0.00,weatherlink.com 1.10,2013-04-15 00:57:00,
2013-04-14 20:12:00,76.4,64.0,29.48,South,170,4.0,16.0,66,0.00,,,0.00,weatherlink.com 1.10,2013-04-15 01:12:00,
2013-04-14 20:27:00,75.6,64.0,29.48,SE,139,4.0,19.0,68,0.00,,,0.00,weatherlink.com 1.10,2013-04-15 01:27:00,
2013-04-14 20:42:00,75.0,64.0,29.49,SE,139,12.0,15.0,69,0.00,,,0.00,weatherlink.com 1.10,2013-04-15 01:42:00,
2013-04-14 20:57:00,74.2,64.0,29.49,SSE,151,8.0,17.0,71,0.00,,,0.00,weatherlink.com 1.10,2013-04-15 01:57:00,
2013-04-14 21:12:00,73.3,64.0,29.50,SE,137,9.0,13.0,73,0.00,,,0.00,weatherlink.com 1.10,2013-04-15 02:12:00,
2013-04-14 21:27:00,73.2,64.0,29.50,SE,130,7.0,15.0,74,0.00,,,0.00,weatherlink.com 1.10,2013-04-15 02:27:00,
2013-04-14 21:42:00,72.7,65.0,29.51,SE,136,9.0,16.0,76,0.00,,,0.00,weatherlink.com 1.10,2013-04-15 02:42:00,
2013-04-14 21:57:00,72.0,64.0,29.51,SE,128,11.0,14.0,77,0.00,,,0.00,weatherlink.com 1.10,2013-04-15 02:57:00,
2013-04-14 22:12:00,71.6,64.0,29.51,SE,140,14.0,18.0,78,0.00,,,0.00,weatherlink.com 1.10,2013-04-15 03:12:00,
2013-04-14 22:27:00,71.1,64.0,29.52,SE,138,9.0,16.0,79,0.00,,,0.00,weatherlink.com 1.10,2013-04-15 03:27:00,
2013-04-14 22:57:00,70.3,64.0,29.52,SE,140,12.0,17.0,81,0.00,,,0.00,weatherlink.com 1.10,2013-04-15 03:57:00,
2013-04-14 23:12:00,70.4,65.0,29.52,SE,141,8.0,18.0,82,0.00,,,0.00,weatherlink.com 1.10,2013-04-15 04:12:00,
2013-04-14 23:27:00,70.5,65.0,29.52,ESE,123,10.0,13.0,82,0.00,,,0.00,weatherlink.com 1.10,2013-04-15 04:27:00,
2013-04-14 23:57:00,70.7,65.0,29.51,SE,136,8.0,14.0,81,0.00,,,0.00,weatherlink.com 1.10,2013-04-15 04:57:00,